星链-31684 (STARLINK-31684 )

导读

STARLINK-31684是美国SpaceX公司于2024年4月13日发射的星链(Starlink)卫星,归属星链全球低轨互联网星座。星链计划旨在为全球偏远、网络基础设施匮乏地区提供高速低时延宽带服务,该卫星采用标准化设计,配备氪离子推进与自主避碰系统,服役后将扩展星链星座覆盖范围,进一步提升星座服务能力,助力全球无缝互联。

Basic Information
目录编号:
59492
目录名称:
STARLINK-31684
国际标识:
2024-071J
轨道中心:
EARTH
卫星名称:
星链-31684
卫星全名:
星链-31684 (STARLINK-31684 )
卫星状态:
在轨 (已飞行792 天)
发射日期:
2024-04-13 UTC
国别 :
美国 (US)
星等 :
--
Orbit Information
数据来源 国际轨道数据 AOE轨道数据
星历时间 2026-06-14T01:11:48+0800
20小时前
查看轨道信息
2026-06-11T11:00:00+0800
3天前
查看轨道信息
半长轴 6861.274km 6861.239km
偏心率 0.0001636 0.0001648
轨道倾角 43.004° 43.005°
近地点辐角 263.182° 290.362°
升交点赤经 165.053° 179.697°
平近点角 96.884° 201.552°
近地点 482.014km 481.971km
远地点 484.26km 484.233km
周期 94.269分钟 94.268分钟
每日圈数 15.275507 15.275625
Detailed Information
固有亮度:
5
最大亮度:
1.5
卫星平台:
Starlink v2.0 mini
覆盖范围:
全球
运营商:
太空探索技术公司
运营商所在国:
美国
制造商(研发单位):
太空探索技术公司
制造商所在国:
美国
使用方式:
暂无
Satellite Introduction
星链(Starlink)计划是由太空探索技术公司(SpaceX)提出的一个巨型低轨卫星互联网星座项目,计划在2019年至2024年间在太空搭建由约1.2万颗卫星组成的“星链”网络,其中1584颗将部署在地球上空550千米处的近地轨道,并从2020年开始工作。该卫星仍在工作。
2D Orbit Map
3D Orbit Map
Orbit Altitude Analysis Chart
Orbit Inclination Analysis Chart
Orbit Comprehensive Analysis Chart
View Comprehensive Chart